Location: Unspecified
(17.6330°N, 0.0000°E)
Time: 16:18:08
(UTC+00:00)

Tiros 1 despin weight - Pass Details

Date: 15 August 2020
Orbit: 593 x 642 km, 48.2° (Epoch: 23 September)

Event Time Altitude Azimuth Distance (km) Brightness Sun altitude
Exits shadow 03:00:19 17° 43° (NE) 1,572 ? -36.4°
Drops below altitude 10° 03:01:24 10° 43° (NE) 1,986 ? -36.2°
Sets 03:03:41 0° 43° (NE) 2,884 ? -35.7°
